#timestamp,LO_Frequency,Hit,StdDev 
1696474815.4,286047004.0,Y
1696474835.2,286047000.0,P
1696474855.0,286047000.2,N
1696474855.9,286047000.2,N
1696474875.8,286047000.5,N
1696474895.6,286047000.0,N
1696474915.4,286047000.2,N
1696474935.3,286047000.0,N
1696474955.1,286047000.6,N
1696474975.9,286047000.8,N
1696474995.7,286047002.8,Y
1696475015.5,286047000.4,P
1696475035.4,286047001.1,P
1696475055.2,286047001.0,P
1696475075.1,286047001.1,Y
1696475076.0,286047001.1,P
1696475095.8,286047001.2,P
1696475115.6,286047000.6,N
1696475135.5,286047000.1,N
1696475155.3,286047001.0,N
1696475175.1,286047002.8,Y
1696475195.9,286047000.4,P
1696475215.7,286047000.4,N
1696475235.6,286047000.1,N
1696475255.4,286047002.4,Y
1696475275.2,286047002.8,P
1696475295.1,286047000.6,N
1696475296.0,286047000.6,N
1696475315.8,286047002.8,N
1696475335.7,286047001.9,N
1696475355.5,286047001.5,N
1696475375.3,286047002.0,N
1696475395.2,286047003.9,Y
1696475415.0,286047001.9,P
1696475415.9,286047001.9,P
1696475435.7,286047001.4,P
1696475455.6,286047001.7,Y
1696475475.4,286046999.7,P
1696475495.3,286047002.1,N
1696475515.1,286047001.6,N
1696475516.0,286047001.6,N
1696475535.8,286047001.8,N
1696475555.7,286047001.3,N
1696475575.5,286047001.7,N
1696475595.4,286047004.4,Y
1696475615.2,286046999.8,P
1696475635.0,286047002.4,N
1696475635.9,286047002.4,N
1696475655.8,286047001.3,N
1696475675.6,286047001.9,N
1696475695.4,286047001.8,N
1696475715.3,286047001.8,N
1696475735.1,286047004.4,Y
1696475755.9,286047000.2,P
1696475775.7,286047000.3,N
1696475795.5,286047000.9,N
1696475815.4,286047000.5,N
1696475835.2,286047000.7,N
1696475855.0,286047000.4,N
1696475855.9,286047000.4,N
1696475875.8,286047000.6,N
1696475895.6,286047000.8,N
1696475915.5,286047001.0,N
1696475935.3,286047000.2,N
1696475955.1,286046999.8,N
1696475975.9,286047002.0,Y
1696475995.7,286047002.6,P
1696476015.6,286047000.3,N
1696476035.4,286047002.0,N
1696476055.2,286047002.4,N
1696476075.1,286047002.2,N
1696476076.0,286047002.2,N
1696476095.8,286047004.4,Y
1696476115.6,286047000.0,P
1696476135.5,286047000.6,N
1696476155.3,286046999.7,N
1696476175.2,286047002.1,N
1696476195.9,286047002.0,N
1696476215.7,286047002.5,N
1696476235.6,286047001.5,N
1696476255.4,286047001.6,N
1696476275.2,286047001.4,N
1696476295.1,286047001.3,N
1696476296.0,286047001.3,N
1696476315.8,286047001.7,N
1696476335.7,286047002.5,Y
1696476355.5,286047001.0,P
1696476375.3,286047000.6,P
1696476395.2,286047002.8,P
1696476415.0,286046999.7,N
1696476415.9,286046999.7,N
1696476435.8,286046999.7,N
1696476455.6,286046999.8,N
1696476475.4,286047002.6,N
1696476495.3,286047002.1,N
1696476515.1,286047002.6,N
1696476516.0,286047002.6,N
1696476535.8,286047001.3,N
1696476555.7,286047001.3,N
1696476575.5,286047004.4,Y
1696476595.4,286047002.0,P
1696476615.2,286047002.5,P
1696476635.0,286047002.8,P
1696476635.9,286047002.8,Y
1696476655.8,286046998.6,P
1696476675.6,286046998.3,N
1696476695.4,286046998.3,N
1696476715.3,286046998.3,N
1696476735.1,286046999.4,N
1696476755.9,286046998.5,N
1696476775.7,286047000.7,N
1696476795.5,286047000.4,N
1696476815.4,286046998.4,N
1696476835.2,286047000.8,N
1696476855.0,286046998.5,N
1696476855.9,286046998.5,N
1696476875.8,286046998.1,N
1696476895.6,286047000.3,N
1696476915.5,286047001.0,N
1696476935.3,286047000.3,N
1696476955.1,286047000.0,N
1696476975.9,286047000.4,N
1696476995.7,286047000.1,N
1696477015.5,286047000.0,N
1696477035.4,286047000.5,N
1696477055.2,286047000.8,N
1696477075.1,286047000.2,N
1696477076.0,286047000.2,N
1696477095.8,286046999.9,N
1696477115.6,286047002.8,N
1696477135.5,286047001.8,N
1696477155.3,286047001.9,N
1696477175.1,286047002.1,N
1696477195.9,286047001.7,N
1696477215.7,286047001.5,N
1696477235.6,286047004.2,Y
1696477255.4,286047001.4,P
1696477275.2,286047001.9,N
1696477295.1,286047001.7,N
1696477296.0,286047001.7,N
1696477315.8,286047004.1,Y
1696477335.7,286047001.5,P
1696477355.5,286047004.3,P
1696477375.3,286047004.0,N
1696477395.2,286047003.0,N
1696477415.0,286047003.0,N
1696477415.9,286047003.0,N
1696477435.7,286047003.7,Y
1696477455.6,286047002.4,P
1696477475.4,286047002.8,P
1696477495.3,286047002.1,P
1696477515.1,286047001.3,Y
1696477535.8,286046999.7,P
1696477555.7,286047004.1,N
1696477575.5,286047005.3,N
1696477595.4,286047008.8,Y
1696477615.2,286047008.7,P
1696477635.0,286047008.3,N
1696477635.9,286047008.3,P
1696477655.8,286047008.0,Y
1696477675.6,286047003.7,P
1696477695.4,286047005.8,P
1696477715.3,286047005.0,P
1696477735.1,286047004.6,Y
1696477755.9,286047000.6,P
1696477775.7,286046999.4,N
1696477795.5,286046997.2,N
1696477815.4,286046993.3,N
1696477835.2,286046992.1,N
1696477855.1,286046990.9,N
1696477856.0,286046990.9,N
1696477875.8,286046990.8,N
1696477895.6,286046988.8,N
1696477915.5,286046989.7,N
1696477935.3,286046987.0,N
1696477955.1,286046989.9,N
1696477975.9,286046989.9,N
1696477995.7,286046989.6,N
1696478015.6,286046986.9,N
1696478035.4,286046990.0,N
1696478055.2,286046989.5,N
1696478075.1,286046989.9,N
1696478076.0,286046989.9,N
1696478095.8,286046986.9,N
1696478115.7,286046986.9,N
1696478135.5,286046989.3,N
1696478155.3,286046989.4,N
1696478175.2,286046989.8,N
1696478195.0,286046991.4,N
1696478195.9,286046991.4,N
1696478215.8,286046994.6,N
1696478235.6,286046995.7,N
1696478255.4,286046996.8,N
1696478275.3,286046996.1,N
1696478295.1,286046994.8,N
1696478315.8,286046995.9,N
1696478335.7,286046996.2,N
1696478355.5,286046993.3,N
1696478375.4,286046995.2,N
1696478395.2,286046997.3,N
